Location: Nassau
(25.0830°N, 77.3500°W)
Time: 07:05:41
(UTC-04:00)

ISS - All Passes

Search period start: 19 October 2017 00:00
Search period end: 29 October 2017 00:00
Orbit: 401 x 408 km, 51.6° (Epoch: 19 October)

Date Brightness Start Highest point End Pass type
(mag) Time Alt. Az. Time Alt. Az. Time Alt. Az.
19 Oct - 10:11:51 10° WSW 10:14:59 46° NW 10:18:07 10° NNE daylight
19 Oct - 18:22:29 10° NNW 18:25:32 35° NE 18:28:34 10° ESE daylight
19 Oct - 20:01:04 10° WSW 20:01:41 10° SW 20:02:20 10° SW visible
20 Oct - 09:19:30 10° SSW 09:22:42 64° SE 09:25:56 10° NE daylight
20 Oct - 17:30:55 10° N 17:33:08 17° NE 17:35:21 10° E daylight
20 Oct - 19:06:51 10° WNW 19:09:33 24° SW 19:12:16 10° S visible
21 Oct - 08:27:48 10° S 08:30:30 24° SE 08:33:12 10° ENE daylight
21 Oct - 10:04:47 10° W 10:06:55 16° NW 10:09:03 10° N daylight
21 Oct - 18:14:06 10° NW 18:17:20 63° SW 18:20:34 10° SSE daylight
22 Oct - 07:37:39 10° SE 07:38:20 10° SE 07:39:01 10° ESE daylight
22 Oct - 09:11:31 10° WSW 09:14:30 34° NW 09:17:30 10° NNE daylight
22 Oct - 17:21:52 10° NNW 17:25:02 48° NE 17:28:12 10° ESE daylight
23 Oct - 08:18:55 10° SW 08:22:10 89° NNW 08:25:24 10° NE daylight
23 Oct - 16:30:03 10° N 16:32:38 21° NE 16:35:13 10° E daylight
23 Oct - 18:06:38 10° W 18:08:57 18° SW 18:11:17 10° S daylight
24 Oct - 07:26:56 10° SSW 07:29:53 33° SE 07:32:51 10° ENE daylight
24 Oct - 09:04:50 10° WNW 09:06:24 13° NW 09:07:59 10° NNW daylight
24 Oct - 15:39:17 10° NNE 15:40:07 11° NE 15:40:57 10° NE daylight
24 Oct - 17:13:36 10° NW 17:16:44 44° SW 17:19:51 10° SSE daylight
25 Oct - 06:35:51 10° SSE 06:37:40 14° SE 06:39:29 10° E visible
25 Oct - 08:11:07 10° WSW 08:13:55 26° NW 08:16:42 10° NNE daylight
25 Oct - 16:21:10 10° NW 16:24:25 67° NE 16:27:39 10° SE daylight
26 Oct - 07:18:17 10° SW 07:21:30 63° NW 07:24:43 10° NE daylight
26 Oct - 15:29:09 10° NNW 15:32:00 27° NE 15:34:51 10° ESE daylight
26 Oct - 17:06:31 10° W 17:08:14 14° SW 17:09:57 10° SSW daylight
27 Oct - 06:26:03 10° SSW 06:29:10 46° SE 06:32:18 10° NE visible
27 Oct - 08:05:22 10° NW 08:05:48 10° NW 08:06:12 10° NNW daylight
27 Oct - 14:37:46 10° N 14:39:29 13° NE 14:41:12 10° ENE daylight
27 Oct - 16:13:02 10° WNW 16:15:59 32° SW 16:18:56 10° SSE daylight
28 Oct - 05:34:31 10° S 05:36:53 19° SE 05:39:16 10° ENE visible
28 Oct - 07:10:43 10° W 07:13:13 20° NW 07:15:43 10° N daylight
28 Oct - 15:20:24 10° NW 15:23:40 86° SW 15:26:55 10° SE daylight
